Weather History for Tappahannock, VA

Change the Weather History Date:

Wednesday, February 6, 2013

  Actual Average (KRIC) Record (KRIC)
Temperature  
Mean Temperature 38 °F 39 °F  
Max Temperature 52 °F 49 °F 79 °F (2008)
Min Temperature 26 °F 29 °F 3 °F (1966)
Degree Days  
Heating Degree Days 26 26  
Month to date heating degree days 156  
Since 1 July heating degree days 2417  
Cooling Degree Days 0 0  
Month to date cooling degree days 0  
Year to date cooling degree days 0  
Moisture  
Dew Point 29 °F    
Average Humidity 74    
Maximum Humidity 99    
Minimum Humidity 44    
Precipitation  
Precipitation 0.00 in 0.10 in 2.17 in (1896)
Month to date precipitation 0.60  
Year to date precipitation 3.64  
Snow  
Snow 0.00 in 0.20 in 4.10 in (2010)
Month to date snowfall 0.9  
Since 1 July snowfall 7.1  
Snow Depth -    
Sea Level Pressure  
Sea Level Pressure 30.15 in    
Wind  
Wind Speed 2 mph (North)    
Max Wind Speed 9 mph    
Max Gust Speed -    
Visibility 8 miles    
Events      
T = Trace of Precipitation, MM = Missing Value Source: NWS Daily Summary

Daily Weather History Graph

Daily Weather History Graph

Search for Another Location

Airport:

Trip Planner

Search our weather history database for the weather conditions in past years. The results will help you decide how hot, cold, wet, or windy it might be!

Date:

Astronomy

Feb. 06, 2013 Rise Set
Actual Time 7:06 AM EST 5:36 PM EST
Civil Twilight 6:39 AM EST 6:04 PM EST
Nautical Twilight 6:08 AM EST 6:35 PM EST
Astronomical Twilight 5:37 AM EST 7:06 PM EST
Moon 3:46 AM EST (2/6) 1:55 PM EST (2/6)
Length of Visible Light 11h 24m
Length of Day
10h 30m
Waning Crescent, 17% of the Moon is Illuminated
Feb 6
Waning Crescent
Feb 10
New
Feb 17
First Quarter
Feb 25
Full
Mar 4
Last Quarter

Hourly Weather History & Observations

Time (EST) Temp. Windchill Dew Point Humidity Pressure Visibility Wind Dir Wind Speed Gust Speed Precip Events Conditions
12:15 AM 31.3 °F - 29.5 °F 93% 29.93 in 10.0 mi Calm Calm - N/A   Clear
12:35 AM 30.4 °F - 29.1 °F 95% 29.93 in 10.0 mi Calm Calm - N/A   Clear
12:55 AM 30.2 °F - 29.3 °F 96% 29.93 in 10.0 mi Calm Calm - N/A   Scattered Clouds
1:15 AM 29.7 °F - 28.8 °F 96% 29.93 in 10.0 mi Calm Calm - N/A   Clear
1:35 AM 29.3 °F - 28.2 °F 96% 29.93 in 7.0 mi Calm Calm - N/A   Clear
1:55 AM 29.3 °F 24.3 °F 28.4 °F 96% 29.94 in 7.0 mi NNW 4.6 mph - N/A   Scattered Clouds
2:15 AM 31.1 °F - 29.8 °F 95% 29.95 in 10.0 mi Calm Calm - N/A   Scattered Clouds
2:35 AM 30.2 °F 26.7 °F 28.6 °F 94% 29.96 in 10.0 mi NNW 3.5 mph - N/A   Scattered Clouds
2:55 AM 31.6 °F 28.3 °F 29.8 °F 93% 29.96 in 7.0 mi NNW 3.5 mph - N/A   Clear
3:15 AM 32.0 °F - 30.4 °F 94% 29.96 in 7.0 mi Calm Calm - N/A   Clear
3:35 AM 31.1 °F - 30.0 °F 96% 29.97 in 5.0 mi Calm Calm - N/A   Clear
3:55 AM 29.7 °F - 28.8 °F 96% 29.97 in 4.0 mi Calm Calm - N/A   Clear
4:15 AM 28.6 °F - 28.2 °F 99% 29.98 in 2.5 mi Calm Calm - N/A   Clear
4:35 AM 27.5 °F 23.6 °F 27.0 °F 98% 29.98 in 4.0 mi SSE 3.5 mph - N/A   Clear
4:55 AM 26.6 °F - 25.9 °F 97% 29.99 in 5.0 mi Calm Calm - N/A   Clear
5:15 AM 28.0 °F 24.2 °F 27.3 °F 97% 30.01 in 5.0 mi NNW 3.5 mph - N/A   Clear
5:35 AM 28.0 °F - 27.5 °F 98% 30.02 in 4.0 mi Calm Calm - N/A   Clear
5:55 AM 26.4 °F - 25.9 °F 98% 30.03 in 3.0 mi Calm Calm - N/A   Clear
6:15 AM 27.1 °F - 26.6 °F 98% 30.05 in 4.0 mi Calm Calm - N/A   Mostly Cloudy
6:35 AM 27.5 °F 21.1 °F 27.0 °F 98% 30.06 in 4.0 mi North 5.8 mph - N/A   Mostly Cloudy
6:55 AM 28.6 °F - 27.7 °F 96% 30.07 in 3.0 mi Calm Calm - N/A   Scattered Clouds
7:15 AM 27.3 °F - 26.6 °F 97% 30.09 in 3.0 mi Calm Calm - N/A   Clear
7:35 AM 28.0 °F - 27.5 °F 98% 30.10 in 3.0 mi Calm Calm - N/A   Clear
7:55 AM 29.1 °F - 28.4 °F 97% 30.11 in 4.0 mi Calm Calm - N/A   Clear
8:35 AM 34.0 °F - 32.0 °F 92% 30.13 in 5.0 mi Calm Calm - N/A   Clear
8:55 AM 36.9 °F - 32.2 °F 83% 30.14 in 7.0 mi Calm Calm - N/A   Clear
9:15 AM 39.4 °F 37.2 °F 32.2 °F 75% 30.15 in 7.0 mi North 3.5 mph - N/A   Clear
9:35 AM 41.2 °F - 32.0 °F 70% 30.16 in 7.0 mi Calm Calm - N/A   Clear
9:55 AM 44.1 °F 40.8 °F 32.0 °F 63% 30.17 in 10.0 mi North 5.8 mph - N/A   Clear
10:15 AM 45.0 °F 40.1 °F 32.0 °F 60% 30.17 in 10.0 mi North 9.2 mph - N/A   Clear
10:35 AM 45.7 °F 42.0 °F 32.0 °F 59% 30.17 in 10.0 mi North 6.9 mph - N/A   Clear
10:55 AM 46.0 °F 41.9 °F 32.0 °F 58% 30.18 in 10.0 mi NNE 8.1 mph - N/A   Clear
11:15 AM 46.0 °F 42.5 °F 31.8 °F 58% 30.19 in 10.0 mi North 6.9 mph - N/A   Clear
11:35 AM 46.9 °F - 31.8 °F 56% 30.18 in 10.0 mi NNW 5.8 mph - N/A   Clear
11:55 AM 47.8 °F - 31.6 °F 53% 30.18 in 10.0 mi NW 8.1 mph - N/A   Clear
12:15 PM 48.2 °F - 31.1 °F 52% 30.17 in 10.0 mi North 6.9 mph - N/A   Clear
12:35 PM 48.7 °F - 31.1 °F 51% 30.17 in 10.0 mi North 5.8 mph - N/A   Clear
1:15 PM 50.0 °F - 31.3 °F 49% 30.17 in 10.0 mi North 8.1 mph - N/A   Clear
1:35 PM 50.4 °F - 31.5 °F 48% 30.17 in 10.0 mi North 8.1 mph - N/A   Clear
1:55 PM 50.7 °F - 31.3 °F 47% 30.17 in 10.0 mi North 5.8 mph - N/A   Clear
2:15 PM 51.1 °F - 30.9 °F 46% 30.17 in 10.0 mi NNW 6.9 mph - N/A   Clear
2:35 PM 50.9 °F - 30.9 °F 46% 30.17 in 10.0 mi North 5.8 mph - N/A   Clear
2:55 PM 51.3 °F - 30.7 °F 45% 30.17 in 10.0 mi ENE 6.9 mph - N/A   Clear
3:15 PM 51.8 °F - 30.4 °F 44% 30.17 in 10.0 mi Calm Calm - N/A   Scattered Clouds
3:35 PM 50.7 °F - 30.4 °F 46% 30.18 in 10.0 mi North 5.8 mph - N/A   Mostly Cloudy
3:55 PM 50.5 °F - 30.6 °F 46% 30.18 in 10.0 mi North 5.8 mph - N/A   Mostly Cloudy
4:15 PM 50.4 °F - 30.0 °F 46% 30.19 in 10.0 mi NNE 4.6 mph - N/A   Scattered Clouds
4:35 PM 49.8 °F - 29.7 °F 46% 30.19 in 10.0 mi NNE 5.8 mph - N/A   Clear
4:55 PM 48.2 °F - 29.3 °F 48% 30.20 in 10.0 mi North 6.9 mph - N/A   Clear
5:15 PM 47.3 °F - 29.1 °F 49% 30.21 in 10.0 mi North 3.5 mph - N/A   Clear
5:35 PM 45.7 °F 43.4 °F 28.9 °F 52% 30.22 in 10.0 mi NNE 4.6 mph - N/A   Clear
5:55 PM 45.0 °F 41.8 °F 28.8 °F 53% 30.23 in 10.0 mi NE 5.8 mph - N/A   Clear
6:15 PM 42.4 °F 38.8 °F 30.9 °F 64% 30.24 in 10.0 mi ENE 5.8 mph - N/A   Clear
6:35 PM 41.5 °F 38.6 °F 30.2 °F 64% 30.25 in 10.0 mi ESE 4.6 mph - N/A   Clear
6:55 PM 40.6 °F 38.6 °F 30.2 °F 66% 30.27 in 10.0 mi East 3.5 mph - N/A   Clear
7:15 PM 39.4 °F - 29.7 °F 68% 30.28 in 10.0 mi Calm Calm - N/A   Clear
7:35 PM 39.2 °F 37.0 °F 28.8 °F 66% 30.29 in 10.0 mi NE 3.5 mph - N/A   Clear
7:55 PM 39.4 °F 36.1 °F 27.7 °F 63% 30.30 in 10.0 mi NE 4.6 mph - N/A   Clear
8:15 PM 38.7 °F 36.3 °F 27.5 °F 64% 30.31 in 10.0 mi NE 3.5 mph - N/A   Clear
8:35 PM 37.2 °F - 27.5 °F 68% 30.32 in 10.0 mi Calm Calm - N/A   Clear
8:55 PM 34.5 °F - 27.0 °F 74% 30.34 in 10.0 mi Calm Calm - N/A   Clear
9:15 PM 34.3 °F - 26.8 °F 74% 30.34 in 10.0 mi Calm Calm - N/A   Clear
9:35 PM 32.0 °F - 26.8 °F 81% 30.34 in 10.0 mi Calm Calm - N/A   Clear
9:55 PM 30.9 °F - 26.4 °F 83% 30.34 in 10.0 mi Calm Calm - N/A   Clear
10:15 PM 31.8 °F - 27.1 °F 83% 30.35 in 10.0 mi Calm Calm - N/A   Clear
10:35 PM 30.7 °F - 27.0 °F 86% 30.36 in 10.0 mi Calm Calm - N/A   Clear
10:55 PM 29.1 °F - 26.2 °F 89% 30.35 in 10.0 mi Calm Calm - N/A   Clear
11:15 PM 29.8 °F 26.3 °F 25.9 °F 85% 30.34 in 10.0 mi NE 3.5 mph - N/A   Clear
11:35 PM 30.4 °F - 27.3 °F 88% 30.35 in 10.0 mi Calm Calm - N/A   Clear
11:55 PM 28.8 °F - 24.8 °F 85% 30.35 in 10.0 mi Calm Calm - N/A   Clear